Time,TemperatureF,DewpointF,PressureIn,WindDirection,WindDirectionDegrees,WindSpeedMPH,WindSpeedGustMPH,Humidity,HourlyPrecipIn,Conditions,Clouds,dailyrainin,SolarRadiationWatts/m^2,SoftwareType,DateUTC
2013-12-31 00:22:00,32.0,18.0,-100.00,South,169,9.0,16.0,56,0.00,,,-99.99,0.000000,,2013-12-31 07:22:00,
2013-12-31 00:32:00,32.0,18.0,-100.00,South,169,9.0,16.0,56,0.00,,,-99.99,0.000000,,2013-12-31 07:32:00,
2013-12-31 00:42:00,32.0,18.0,-100.00,South,169,9.0,16.0,56,0.00,,,-99.99,0.000000,,2013-12-31 07:42:00,
2013-12-31 00:51:00,34.0,18.0,-100.00,South,190,12.0,18.0,52,0.00,,,0.00,0.000000,,2013-12-31 07:51:00,
2013-12-31 01:22:00,34.0,18.0,-100.00,South,190,12.0,18.0,52,0.00,,,0.00,0.000000,,2013-12-31 08:22:00,
2013-12-31 01:32:00,34.0,18.0,-100.00,South,190,12.0,18.0,52,0.00,,,0.00,0.000000,,2013-12-31 08:32:00,
2013-12-31 01:42:00,34.0,18.0,-100.00,South,190,12.0,18.0,52,0.00,,,0.00,0.000000,,2013-12-31 08:42:00,
2013-12-31 01:51:00,33.0,18.0,-100.00,South,187,10.0,19.0,53,0.00,,,0.00,0.000000,,2013-12-31 08:51:00,
2013-12-31 02:22:00,33.0,18.0,-100.00,South,187,10.0,19.0,53,0.00,,,0.00,0.000000,,2013-12-31 09:22:00,
2013-12-31 02:33:00,33.0,18.0,-100.00,South,187,10.0,19.0,53,0.00,,,0.00,0.000000,,2013-12-31 09:33:00,
2013-12-31 02:43:00,33.0,18.0,-100.00,South,187,10.0,19.0,53,0.00,,,0.00,0.000000,,2013-12-31 09:43:00,
2013-12-31 02:51:00,34.0,18.0,-100.00,South,189,14.0,18.0,52,0.00,,,0.00,0.000000,,2013-12-31 09:51:00,
2013-12-31 03:23:00,34.0,18.0,-100.00,South,189,14.0,18.0,52,0.00,,,0.00,0.000000,,2013-12-31 10:23:00,
2013-12-31 03:33:00,34.0,18.0,-100.00,South,189,14.0,18.0,52,0.00,,,0.00,0.000000,,2013-12-31 10:33:00,
2013-12-31 03:43:00,34.0,18.0,-100.00,South,189,14.0,18.0,52,0.00,,,0.00,0.000000,,2013-12-31 10:43:00,
2013-12-31 03:51:00,35.0,19.0,-100.00,South,175,12.0,18.0,52,0.00,,,0.00,0.000000,,2013-12-31 10:51:00,
2013-12-31 04:22:00,35.0,19.0,-100.00,South,175,12.0,18.0,52,0.00,,,0.00,0.000000,,2013-12-31 11:22:00,
2013-12-31 04:33:00,35.0,19.0,-100.00,South,175,12.0,18.0,52,0.00,,,0.00,0.000000,,2013-12-31 11:33:00,
2013-12-31 04:43:00,35.0,19.0,-100.00,South,175,12.0,18.0,52,0.00,,,0.00,0.000000,,2013-12-31 11:43:00,
2013-12-31 04:51:00,34.0,19.0,-100.00,South,188,7.0,16.0,54,0.00,,,0.00,0.000000,,2013-12-31 11:51:00,
2013-12-31 05:22:00,34.0,19.0,-100.00,South,188,7.0,16.0,54,0.00,,,0.00,0.000000,,2013-12-31 12:22:00,
2013-12-31 05:33:00,34.0,19.0,-100.00,South,188,7.0,16.0,54,0.00,,,0.00,0.000000,,2013-12-31 12:33:00,
2013-12-31 05:42:00,34.0,19.0,-100.00,South,188,7.0,16.0,54,0.00,,,0.00,0.000000,,2013-12-31 12:42:00,
2013-12-31 05:51:00,34.0,20.0,-100.00,South,184,6.0,9.0,56,0.00,,,0.00,0.000000,,2013-12-31 12:51:00,
2013-12-31 06:22:00,34.0,20.0,-100.00,South,184,6.0,9.0,56,0.00,,,0.00,0.000000,,2013-12-31 13:22:00,
2013-12-31 06:32:00,34.0,20.0,-100.00,South,184,6.0,9.0,56,0.00,,,0.00,0.000000,,2013-12-31 13:32:00,
2013-12-31 06:42:00,34.0,20.0,-100.00,South,184,6.0,9.0,56,0.00,,,0.00,0.000000,,2013-12-31 13:42:00,
2013-12-31 06:51:00,34.0,21.0,-100.00,SSE,164,7.0,10.0,59,0.00,,,-99.99,0.000000,,2013-12-31 13:51:00,
2013-12-31 07:23:00,34.0,21.0,-100.00,SSE,164,7.0,10.0,59,0.00,,,-99.99,0.000000,,2013-12-31 14:23:00,
2013-12-31 07:32:00,34.0,21.0,-100.00,SSE,164,7.0,10.0,59,0.00,,,-99.99,0.000000,,2013-12-31 14:32:00,
2013-12-31 07:42:00,34.0,21.0,-100.00,SSE,164,7.0,10.0,59,0.00,,,-99.99,0.000000,,2013-12-31 14:42:00,
2013-12-31 07:51:00,35.0,21.0,-100.00,South,169,6.0,9.0,56,0.00,,,0.00,0.000000,,2013-12-31 14:51:00,
2013-12-31 08:22:00,35.0,21.0,-100.00,South,169,6.0,9.0,56,0.00,,,0.00,0.000000,,2013-12-31 15:22:00,
2013-12-31 08:33:00,35.0,21.0,-100.00,South,169,6.0,9.0,56,0.00,,,0.00,0.000000,,2013-12-31 15:33:00,
2013-12-31 08:43:00,35.0,21.0,-100.00,South,169,6.0,9.0,56,0.00,,,0.00,0.000000,,2013-12-31 15:43:00,
2013-12-31 08:51:00,36.0,22.0,-100.00,SSE,155,5.0,9.0,56,0.00,,,0.00,16.000000,,2013-12-31 15:51:00,
2013-12-31 09:23:00,36.0,22.0,-100.00,SSE,155,5.0,9.0,56,0.00,,,0.00,16.000000,,2013-12-31 16:23:00,
2013-12-31 09:33:00,36.0,22.0,-100.00,SSE,155,5.0,9.0,56,0.00,,,0.00,16.000000,,2013-12-31 16:33:00,
2013-12-31 09:42:00,36.0,22.0,-100.00,SSE,155,5.0,9.0,56,0.00,,,0.00,16.000000,,2013-12-31 16:42:00,
2013-12-31 09:51:00,37.0,23.0,-100.00,South,181,5.0,8.0,56,0.00,,,0.00,74.000000,,2013-12-31 16:51:00,
2013-12-31 10:22:00,37.0,23.0,-100.00,South,181,5.0,8.0,56,0.00,,,0.00,74.000000,,2013-12-31 17:22:00,
2013-12-31 10:32:00,37.0,23.0,-100.00,South,181,5.0,8.0,56,0.00,,,0.00,74.000000,,2013-12-31 17:32:00,
2013-12-31 10:42:00,37.0,23.0,-100.00,South,181,5.0,8.0,56,0.00,,,0.00,74.000000,,2013-12-31 17:42:00,
2013-12-31 10:51:00,40.0,25.0,-100.00,South,181,7.0,9.0,55,0.00,,,0.00,115.000000,,2013-12-31 17:51:00,
2013-12-31 11:22:00,40.0,25.0,-100.00,South,181,7.0,9.0,55,0.00,,,0.00,115.000000,,2013-12-31 18:22:00,
2013-12-31 11:32:00,40.0,25.0,-100.00,South,181,7.0,9.0,55,0.00,,,0.00,115.000000,,2013-12-31 18:32:00,
2013-12-31 11:42:00,40.0,25.0,-100.00,South,181,7.0,9.0,55,0.00,,,0.00,115.000000,,2013-12-31 18:42:00,
2013-12-31 11:51:00,39.0,25.0,-100.00,SSE,168,11.0,15.0,57,0.00,,,0.00,160.000000,,2013-12-31 18:51:00,
2013-12-31 12:22:00,39.0,25.0,-100.00,SSE,168,11.0,15.0,57,0.00,,,0.00,160.000000,,2013-12-31 19:22:00,
2013-12-31 12:32:00,39.0,25.0,-100.00,SSE,168,11.0,15.0,57,0.00,,,0.00,160.000000,,2013-12-31 19:32:00,
2013-12-31 12:43:00,39.0,25.0,-100.00,SSE,168,11.0,15.0,57,0.00,,,0.00,160.000000,,2013-12-31 19:43:00,
2013-12-31 12:51:00,41.0,26.0,-100.00,SSE,158,6.0,15.0,54,0.00,,,0.00,238.000000,,2013-12-31 19:51:00,
2013-12-31 13:21:00,41.0,26.0,-100.00,SSE,158,6.0,15.0,54,0.00,,,0.00,238.000000,,2013-12-31 20:21:00,
2013-12-31 13:32:00,41.0,26.0,-100.00,SSE,158,6.0,15.0,54,0.00,,,0.00,238.000000,,2013-12-31 20:32:00,
2013-12-31 13:42:00,41.0,26.0,-100.00,SSE,158,6.0,15.0,54,0.00,,,0.00,238.000000,,2013-12-31 20:42:00,
2013-12-31 13:51:00,45.0,27.0,-100.00,North,-999,0.0,9.0,49,0.00,,,0.00,224.000000,,2013-12-31 20:51:00,
2013-12-31 14:22:00,45.0,27.0,-100.00,North,-999,0.0,9.0,49,0.00,,,0.00,224.000000,,2013-12-31 21:22:00,
2013-12-31 14:33:00,45.0,27.0,-100.00,North,-999,0.0,9.0,49,0.00,,,0.00,224.000000,,2013-12-31 21:33:00,
2013-12-31 14:43:00,45.0,27.0,-100.00,North,-999,0.0,9.0,49,0.00,,,0.00,224.000000,,2013-12-31 21:43:00,
2013-12-31 14:51:00,43.0,26.0,-100.00,East,85,1.0,4.0,51,0.00,,,0.00,139.000000,,2013-12-31 21:51:00,
2013-12-31 15:23:00,43.0,26.0,-100.00,East,85,1.0,4.0,51,0.00,,,0.00,139.000000,,2013-12-31 22:23:00,
2013-12-31 15:34:00,43.0,26.0,-100.00,East,85,1.0,4.0,51,0.00,,,0.00,139.000000,,2013-12-31 22:34:00,
2013-12-31 15:43:00,43.0,26.0,-100.00,East,85,1.0,4.0,51,0.00,,,0.00,139.000000,,2013-12-31 22:43:00,
2013-12-31 15:51:00,40.0,26.0,-100.00,North,11,4.0,5.0,57,0.00,,,0.00,111.000000,,2013-12-31 22:51:00,
2013-12-31 16:22:00,40.0,26.0,-100.00,North,11,4.0,5.0,57,0.00,,,0.00,111.000000,,2013-12-31 23:22:00,
2013-12-31 16:33:00,40.0,26.0,-100.00,North,11,4.0,5.0,57,0.00,,,0.00,111.000000,,2013-12-31 23:33:00,
2013-12-31 16:43:00,40.0,26.0,-100.00,North,11,4.0,5.0,57,0.00,,,0.00,111.000000,,2013-12-31 23:43:00,
2013-12-31 16:51:00,37.0,27.0,-100.00,North,2,5.0,11.0,66,0.00,,,-99.99,19.000000,,2013-12-31 23:51:00,
2013-12-31 17:22:00,37.0,27.0,-100.00,North,2,5.0,11.0,66,0.00,,,-99.99,19.000000,,2014-01-01 00:22:00,
2013-12-31 17:32:00,37.0,27.0,-100.00,North,2,5.0,11.0,66,0.00,,,-99.99,19.000000,,2014-01-01 00:32:00,
2013-12-31 17:42:00,37.0,27.0,-100.00,North,2,5.0,11.0,66,0.00,,,-99.99,19.000000,,2014-01-01 00:42:00,
2013-12-31 17:51:00,38.0,29.0,-100.00,NNW,338,6.0,9.0,71,0.00,,,0.00,0.000000,,2014-01-01 00:51:00,
2013-12-31 18:22:00,38.0,29.0,-100.00,NNW,338,6.0,9.0,71,0.00,,,0.00,0.000000,,2014-01-01 01:22:00,
2013-12-31 18:32:00,38.0,29.0,-100.00,NNW,338,6.0,9.0,71,0.00,,,0.00,0.000000,,2014-01-01 01:32:00,
2013-12-31 18:42:00,38.0,29.0,-100.00,NNW,338,6.0,9.0,71,0.00,,,0.00,0.000000,,2014-01-01 01:42:00,
2013-12-31 18:51:00,32.0,31.0,-100.00,North,352,12.0,19.0,97,0.00,,,0.00,0.000000,,2014-01-01 01:51:00,
2013-12-31 19:22:00,32.0,31.0,-100.00,North,352,12.0,19.0,97,0.00,,,0.00,0.000000,,2014-01-01 02:22:00,
2013-12-31 19:32:00,32.0,31.0,-100.00,North,352,12.0,19.0,97,0.00,,,0.00,0.000000,,2014-01-01 02:32:00,
2013-12-31 19:42:00,32.0,31.0,-100.00,North,352,12.0,19.0,97,0.00,,,0.00,0.000000,,2014-01-01 02:42:00,
2013-12-31 19:51:00,33.0,33.0,-100.00,SSE,159,12.0,16.0,100,0.00,,,0.00,0.000000,,2014-01-01 02:51:00,
2013-12-31 20:22:00,33.0,33.0,-100.00,SSE,159,12.0,16.0,100,0.00,,,0.00,0.000000,,2014-01-01 03:22:00,
2013-12-31 20:33:00,33.0,33.0,-100.00,SSE,159,12.0,16.0,100,0.00,,,0.00,0.000000,,2014-01-01 03:33:00,
2013-12-31 20:43:00,33.0,33.0,-100.00,SSE,159,12.0,16.0,100,0.00,,,0.00,0.000000,,2014-01-01 03:43:00,
2013-12-31 20:51:00,33.0,33.0,-100.00,NNW,333,8.0,14.0,100,0.00,,,0.00,0.000000,,2014-01-01 03:51:00,
2013-12-31 21:23:00,33.0,33.0,-100.00,NNW,333,8.0,14.0,100,0.00,,,0.00,0.000000,,2014-01-01 04:23:00,
2013-12-31 21:33:00,33.0,33.0,-100.00,NNW,333,8.0,14.0,100,0.00,,,0.00,0.000000,,2014-01-01 04:33:00,
2013-12-31 21:43:00,33.0,33.0,-100.00,NNW,333,8.0,14.0,100,0.00,,,0.00,0.000000,,2014-01-01 04:43:00,
2013-12-31 21:51:00,32.0,32.0,-100.00,NNW,339,9.0,14.0,100,0.00,,,0.00,0.000000,,2014-01-01 04:51:00,
2013-12-31 22:22:00,32.0,32.0,-100.00,NNW,339,9.0,14.0,100,0.00,,,0.00,0.000000,,2014-01-01 05:22:00,
2013-12-31 22:33:00,32.0,32.0,-100.00,NNW,339,9.0,14.0,100,0.00,,,0.00,0.000000,,2014-01-01 05:33:00,
2013-12-31 22:43:00,32.0,32.0,-100.00,NNW,339,9.0,14.0,100,0.00,,,0.00,0.000000,,2014-01-01 05:43:00,
2013-12-31 22:51:00,32.0,32.0,-100.00,NNW,333,8.0,17.0,100,0.00,,,-99.99,0.000000,,2014-01-01 05:51:00,
2013-12-31 23:22:00,32.0,32.0,-100.00,NNW,333,8.0,17.0,100,0.00,,,-99.99,0.000000,,2014-01-01 06:22:00,
2013-12-31 23:33:00,32.0,32.0,-100.00,NNW,333,8.0,17.0,100,0.00,,,-99.99,0.000000,,2014-01-01 06:33:00,
2013-12-31 23:42:00,32.0,32.0,-100.00,NNW,333,8.0,17.0,100,0.00,,,-99.99,0.000000,,2014-01-01 06:42:00,
2013-12-31 23:51:00,31.0,31.0,-100.00,NNW,345,14.0,21.0,100,0.00,,,0.00,0.000000,,2014-01-01 06:51:00,